When you browse on this site, cookies collect data to enhance your experience and personalize the content and advertising you see.
Visit our Privacy Policy to learn more. By continuing to use the site, you agree to this use of cookies and data.

Météo par heure à Abbeville

Ce jour, 14 Août, Vendredi

Heure Température Précipitation Vent Pression Humidité
00:00 +22°C° 0 mm 1 m/s 757 mmHg 87%
01:00 +21°C° 0.5 mm 1 m/s 757 mmHg 89%
02:00 +20°C° 0.5 mm 2 m/s 756 mmHg 90%
03:00 +20°C° 0.5 mm 2 m/s 756 mmHg 91%
04:00 +20°C° 0.2 mm 2 m/s 756 mmHg 91%
05:00 +20°C° 0.2 mm 2 m/s 757 mmHg 92%
06:00 +20°C° 0.2 mm 2 m/s 757 mmHg 92%
07:00 +20°C° 0.1 mm 3 m/s 757 mmHg 91%
08:00 +20°C° 0.1 mm 3 m/s 757 mmHg 89%
09:00 +21°C° 0.1 mm 3 m/s 757 mmHg 88%
10:00 +22°C° 0.2 mm 3 m/s 757 mmHg 84%
11:00 +22°C° 0.2 mm 4 m/s 757 mmHg 80%
12:00 +23°C° 0.2 mm 4 m/s 757 mmHg 76%
13:00 +25°C° 0.2 mm 4 m/s 757 mmHg 75%
14:00 +25°C° 0.2 mm 4 m/s 757 mmHg 73%
15:00 +25°C° 0.2 mm 4 m/s 757 mmHg 71%
16:00 +23°C° 0.1 mm 4 m/s 757 mmHg 74%
17:00 +23°C° 0.1 mm 4 m/s 757 mmHg 77%
18:00 +22°C° 0.1 mm 3 m/s 757 mmHg 81%
19:00 +21°C° 0 mm 3 m/s 757 mmHg 85%
20:00 +20°C° 0 mm 2 m/s 757 mmHg 90%
21:00 +19°C° 0 mm 2 m/s 757 mmHg 95%
22:00 +19°C° 0 mm 2 m/s 757 mmHg 96%
23:00 +18°C° 0 mm 2 m/s 758 mmHg 96%

Demain, 15 Août, Samedi

Heure Température Précipitation Vent Pression Humidité
00:00 +18°C° 0 mm 2 m/s 758 mmHg 97%
01:00 +18°C° 0 mm 2 m/s 758 mmHg 97%
02:00 +18°C° 0 mm 2 m/s 757 mmHg 97%
03:00 +18°C° 0 mm 2 m/s 757 mmHg 97%
04:00 +19°C° 0 mm 2 m/s 757 mmHg 96%
05:00 +19°C° 0 mm 2 m/s 757 mmHg 95%
06:00 +19°C° 0 mm 3 m/s 758 mmHg 94%
07:00 +20°C° 0.1 mm 3 m/s 758 mmHg 91%
08:00 +20°C° 0.1 mm 3 m/s 758 mmHg 89%
09:00 +21°C° 0.1 mm 3 m/s 758 mmHg 87%
10:00 +21°C° 0.1 mm 3 m/s 758 mmHg 84%
11:00 +22°C° 0.1 mm 3 m/s 758 mmHg 82%
12:00 +22°C° 0.1 mm 3 m/s 758 mmHg 80%
13:00 +24°C° 0 mm 3 m/s 757 mmHg 77%
14:00 +24°C° 0 mm 2 m/s 757 mmHg 73%
15:00 +25°C° 0 mm 2 m/s 757 mmHg 70%
16:00 +24°C° 0.1 mm 2 m/s 757 mmHg 73%
17:00 +24°C° 0.1 mm 2 m/s 757 mmHg 76%
18:00 +23°C° 0.1 mm 1 m/s 757 mmHg 79%
19:00 +22°C° 0 mm 1 m/s 757 mmHg 83%
20:00 +21°C° 0 mm 1 m/s 757 mmHg 87%
21:00 +20°C° 0 mm 1 m/s 757 mmHg 91%
22:00 +20°C° 0 mm 1 m/s 757 mmHg 92%
23:00 +19°C° 0 mm 1 m/s 757 mmHg 92%

Après-demain, 16 Août, Dimanche

Heure Température Précipitation Vent Pression Humidité
00:00 +19°C° 0 mm 1 m/s 756 mmHg 93%
01:00 +19°C° 0 mm 1 m/s 756 mmHg 93%
02:00 +19°C° 0 mm 1 m/s 756 mmHg 93%
03:00 +19°C° 0 mm 1 m/s 756 mmHg 93%
04:00 +18°C° 0 mm 2 m/s 756 mmHg 91%
05:00 +19°C° 0 mm 2 m/s 755 mmHg 89%
06:00 +19°C° 0 mm 2 m/s 755 mmHg 87%
07:00 +21°C° 0 mm 2 m/s 755 mmHg 79%
08:00 +24°C° 0 mm 3 m/s 755 mmHg 70%
09:00 +26°C° 0 mm 3 m/s 755 mmHg 62%
10:00 +27°C° 0 mm 3 m/s 755 mmHg 58%
11:00 +28°C° 0 mm 3 m/s 755 mmHg 53%
12:00 +30°C° 0 mm 3 m/s 754 mmHg 48%
13:00 +30°C° 0.3 mm 3 m/s 754 mmHg 48%
14:00 +30°C° 0.3 mm 3 m/s 754 mmHg 47%
15:00 +30°C° 0.3 mm 3 m/s 753 mmHg 46%
16:00 +28°C° 0.5 mm 4 m/s 753 mmHg 54%
17:00 +26°C° 0.5 mm 4 m/s 753 mmHg 63%
18:00 +23°C° 0.5 mm 4 m/s 753 mmHg 71%
19:00 +22°C° 0.1 mm 3 m/s 754 mmHg 77%
20:00 +21°C° 0.1 mm 3 m/s 754 mmHg 83%
21:00 +19°C° 0.1 mm 3 m/s 754 mmHg 89%
22:00 +19°C° 0 mm 2 m/s 754 mmHg 89%
23:00 +18°C° 0 mm 2 m/s 754 mmHg 89%

17 Août, Lundi

Heure Température Précipitation Vent Pression Humidité
00:00 +19°C° 0 mm 1 m/s 754 mmHg 89%
01:00 +18°C° 0 mm 2 m/s 754 mmHg 89%
02:00 +17°C° 0 mm 3 m/s 754 mmHg 89%
03:00 +17°C° 0 mm 3 m/s 754 mmHg 89%
04:00 +17°C° 0 mm 3 m/s 754 mmHg 88%
05:00 +18°C° 0 mm 4 m/s 754 mmHg 87%
06:00 +18°C° 0 mm 4 m/s 754 mmHg 86%
07:00 +19°C° 0 mm 4 m/s 754 mmHg 81%
08:00 +20°C° 0 mm 4 m/s 755 mmHg 76%
09:00 +21°C° 0 mm 5 m/s 755 mmHg 71%
10:00 +22°C° 1 mm 5 m/s 755 mmHg 71%
11:00 +22°C° 1 mm 5 m/s 754 mmHg 70%
12:00 +22°C° 1 mm 4 m/s 754 mmHg 70%
13:00 +22°C° 0.4 mm 4 m/s 754 mmHg 70%
14:00 +22°C° 0.4 mm 4 m/s 754 mmHg 70%
15:00 +22°C° 0.4 mm 4 m/s 754 mmHg 70%
16:00 +21°C° 0 mm 4 m/s 755 mmHg 71%
17:00 +21°C° 0 mm 4 m/s 755 mmHg 72%
18:00 +20°C° 0 mm 3 m/s 755 mmHg 73%
19:00 +19°C° 0 mm 3 m/s 755 mmHg 79%
20:00 +18°C° 0 mm 3 m/s 756 mmHg 86%
21:00 +17°C° 0 mm 3 m/s 756 mmHg 92%
22:00 +17°C° 0 mm 3 m/s 756 mmHg 93%
23:00 +16°C° 0 mm 3 m/s 756 mmHg 93%

18 Août, Mardi

Heure Température Précipitation Vent Pression Humidité
00:00 +16°C° 0 mm 3 m/s 756 mmHg 93%
01:00 +15°C° 0 mm 4 m/s 756 mmHg 94%
02:00 +15°C° 0 mm 4 m/s 756 mmHg 94%
03:00 +15°C° 0 mm 4 m/s 756 mmHg 94%
04:00 +15°C° 0 mm 4 m/s 756 mmHg 93%
05:00 +15°C° 0 mm 5 m/s 757 mmHg 92%
06:00 +15°C° 0 mm 5 m/s 757 mmHg 91%
07:00 +17°C° 0 mm 5 m/s 757 mmHg 84%
08:00 +19°C° 0 mm 6 m/s 757 mmHg 78%
09:00 +21°C° 0 mm 6 m/s 757 mmHg 71%
10:00 +21°C° 0.2 mm 6 m/s 757 mmHg 69%
11:00 +22°C° 0.2 mm 7 m/s 757 mmHg 66%
12:00 +22°C° 0.2 mm 7 m/s 757 mmHg 64%
13:00 +23°C° 0 mm 7 m/s 757 mmHg 63%
14:00 +23°C° 0 mm 7 m/s 757 mmHg 62%
15:00 +23°C° 0 mm 7 m/s 756 mmHg 61%
16:00 +22°C° 0 mm 6 m/s 757 mmHg 65%
17:00 +21°C° 0 mm 6 m/s 757 mmHg 68%
18:00 +20°C° 0 mm 5 m/s 757 mmHg 72%
19:00 +19°C° 0 mm 5 m/s 757 mmHg 78%
20:00 +18°C° 0 mm 4 m/s 757 mmHg 84%
21:00 +16°C° 0 mm 3 m/s 757 mmHg 90%
22:00 +16°C° 0 mm 3 m/s 757 mmHg 91%
23:00 +16°C° 0 mm 3 m/s 757 mmHg 91%

19 Août, Mercredi

Heure Température Précipitation Vent Pression Humidité
00:00 +16°C° 0 mm 3 m/s 757 mmHg 92%
01:00 +14°C° 0 mm 3 m/s 757 mmHg 92%
02:00 +15°C° 0 mm 2 m/s 757 mmHg 92%
03:00 +15°C° 0 mm 2 m/s 757 mmHg 92%
04:00 +15°C° 0 mm 2 m/s 756 mmHg 90%
05:00 +16°C° 0 mm 2 m/s 756 mmHg 89%
06:00 +16°C° 0 mm 2 m/s 756 mmHg 88%
07:00 +18°C° 0 mm 2 m/s 756 mmHg 79%
08:00 +20°C° 0 mm 2 m/s 756 mmHg 71%
09:00 +23°C° 0 mm 2 m/s 756 mmHg 63%
10:00 +24°C° 0 mm 3 m/s 755 mmHg 59%
11:00 +25°C° 0 mm 3 m/s 755 mmHg 55%
12:00 +27°C° 0 mm 3 m/s 754 mmHg 51%
13:00 +27°C° 0 mm 3 m/s 753 mmHg 49%
14:00 +28°C° 0 mm 3 m/s 753 mmHg 47%
15:00 +28°C° 0 mm 3 m/s 752 mmHg 45%
16:00 +28°C° 0 mm 3 m/s 751 mmHg 48%
17:00 +27°C° 0 mm 3 m/s 751 mmHg 52%
18:00 +26°C° 0 mm 2 m/s 750 mmHg 55%
19:00 +25°C° 0.2 mm 3 m/s 750 mmHg 63%
20:00 +22°C° 0.2 mm 4 m/s 749 mmHg 71%
21:00 +21°C° 0.2 mm 4 m/s 749 mmHg 79%
22:00 +21°C° 0 mm 5 m/s 748 mmHg 79%
23:00 +21°C° 0 mm 6 m/s 748 mmHg 79%
Voir plus